Time,TemperatureF,DewpointF,PressureIn,WindDirection,WindDirectionDegrees,WindSpeedMPH,WindSpeedGustMPH,Humidity,HourlyPrecipIn,Conditions,Clouds,dailyrainin,SolarRadiationWatts/m^2,SoftwareType,DateUTC
2013-03-03 00:00:00,39.8,27.4,29.91,SSE,147,1.8,3.4,61,0.00,OVC,OVC,0.00,0.0,WeatherDisplay:10.37,2013-03-03 07:00:00,
2013-03-03 00:05:00,39.7,27.3,29.91,SSE,148,2.8,4.6,61,0.00,OVC,OVC,0.00,0.0,WeatherDisplay:10.37,2013-03-03 07:05:00,
2013-03-03 00:10:00,39.7,27.3,29.90,SSE,147,3.8,6.9,61,0.00,OVC,OVC,0.00,0.0,WeatherDisplay:10.37,2013-03-03 07:10:00,
2013-03-03 00:15:00,39.7,27.3,29.90,SSE,147,4.2,5.8,61,0.00,OVC,OVC,0.00,0.0,WeatherDisplay:10.37,2013-03-03 07:15:00,
2013-03-03 00:20:00,39.7,27.3,29.90,SSE,149,3.4,4.6,61,0.00,OVC,OVC,0.00,0.0,WeatherDisplay:10.37,2013-03-03 07:20:00,
2013-03-03 00:25:00,39.6,27.2,29.89,SSE,149,2.6,4.6,61,0.00,OVC,OVC,0.00,0.0,WeatherDisplay:10.37,2013-03-03 07:25:00,
2013-03-03 00:30:00,39.6,27.2,29.89,SSE,148,0.6,3.4,61,0.00,OVC,OVC,0.00,0.0,WeatherDisplay:10.37,2013-03-03 07:30:00,
2013-03-03 00:35:00,39.5,27.5,29.89,SSE,148,2.6,3.4,62,0.00,OVC,OVC,0.00,0.0,WeatherDisplay:10.37,2013-03-03 07:35:00,
2013-03-03 00:40:00,39.5,27.5,29.89,SSE,148,0.6,2.3,62,0.00,OVC,OVC,0.00,0.0,WeatherDisplay:10.37,2013-03-03 07:40:00,
2013-03-03 00:45:00,39.5,27.5,29.89,SSE,148,0.6,2.3,62,0.00,OVC,OVC,0.00,0.0,WeatherDisplay:10.37,2013-03-03 07:45:00,
2013-03-03 00:50:00,39.5,27.5,29.88,SSE,148,0.6,2.3,62,0.00,OVC,OVC,0.00,0.0,WeatherDisplay:10.37,2013-03-03 07:50:00,
2013-03-03 00:55:00,39.4,27.5,29.88,SSE,148,2.3,4.0,62,0.00,OVC,OVC,0.00,0.0,WeatherDisplay:10.37,2013-03-03 07:55:00,
2013-03-03 01:00:00,39.4,27.5,29.87,SE,140,5.7,6.9,62,0.00,OVC,OVC,0.00,0.0,WeatherDisplay:10.37,2013-03-03 08:00:00,
2013-03-03 01:05:00,39.4,27.5,29.87,SE,141,2.3,3.4,62,0.00,OVC,OVC,0.00,0.0,WeatherDisplay:10.37,2013-03-03 08:05:00,
2013-03-03 01:10:00,39.4,27.5,29.87,SE,142,1.8,3.4,62,0.00,OVC,OVC,0.00,0.0,WeatherDisplay:10.37,2013-03-03 08:10:00,
2013-03-03 01:15:00,39.3,27.4,29.86,SE,141,3.1,4.6,62,0.00,OVC,OVC,0.00,0.0,WeatherDisplay:10.37,2013-03-03 08:15:00,
2013-03-03 01:20:00,39.3,27.4,29.86,SE,142,3.9,7.0,62,0.00,OVC,OVC,0.00,0.0,WeatherDisplay:10.37,2013-03-03 08:20:00,
2013-03-03 01:25:00,39.3,27.4,29.86,SE,142,3.4,4.6,62,0.00,OVC,OVC,0.00,0.0,WeatherDisplay:10.37,2013-03-03 08:25:00,
2013-03-03 01:30:00,39.2,27.3,29.85,SSE,148,4.2,6.9,62,0.00,OVC,OVC,0.00,0.0,WeatherDisplay:10.37,2013-03-03 08:30:00,
2013-03-03 01:35:00,39.2,27.3,29.85,SSE,148,0.6,4.0,62,0.00,OVC,OVC,0.00,0.0,WeatherDisplay:10.37,2013-03-03 08:35:00,
2013-03-03 01:40:00,39.1,27.2,29.84,SSE,149,2.2,3.4,62,0.00,OVC,OVC,0.00,0.0,WeatherDisplay:10.37,2013-03-03 08:40:00,
2013-03-03 01:45:00,39.1,27.6,29.84,SSE,149,0.3,2.3,63,0.00,OVC,OVC,0.00,0.0,WeatherDisplay:10.37,2013-03-03 08:45:00,
2013-03-03 01:50:00,39.1,27.2,29.84,SSE,149,0.3,1.1,62,0.00,OVC,OVC,0.00,0.0,WeatherDisplay:10.37,2013-03-03 08:50:00,
2013-03-03 01:55:00,39.0,27.1,29.84,SSE,149,0.2,1.0,62,0.00,OVC,OVC,0.00,0.0,WeatherDisplay:10.37,2013-03-03 08:55:00,
2013-03-03 02:00:00,38.9,27.0,29.83,SSE,149,0.0,0.0,62,0.00,OVC,OVC,0.00,0.0,WeatherDisplay:10.37,2013-03-03 09:00:00,
2013-03-03 02:05:00,38.9,27.0,29.82,SSE,149,1.2,2.3,62,0.00,OVC,OVC,0.00,0.0,WeatherDisplay:10.37,2013-03-03 09:05:00,
2013-03-03 02:10:00,38.8,27.3,29.81,SSE,149,0.2,1.1,63,0.00,OVC,OVC,0.00,0.0,WeatherDisplay:10.37,2013-03-03 09:10:00,
2013-03-03 02:15:00,38.8,26.9,29.81,SSE,149,0.0,0.0,62,0.00,OVC,OVC,0.00,0.0,WeatherDisplay:10.37,2013-03-03 09:15:00,
2013-03-03 02:20:00,38.8,26.9,29.80,SSE,149,0.9,2.3,62,0.00,OVC,OVC,0.00,0.0,WeatherDisplay:10.37,2013-03-03 09:20:00,
2013-03-03 02:25:00,38.8,26.9,29.79,SSE,149,1.4,2.3,62,0.00,OVC,OVC,0.00,0.0,WeatherDisplay:10.37,2013-03-03 09:25:00,
2013-03-03 02:30:00,38.9,27.0,29.79,SSE,149,0.0,0.0,62,0.00,OVC,OVC,0.00,0.0,WeatherDisplay:10.37,2013-03-03 09:30:00,
2013-03-03 02:35:00,38.9,27.0,29.79,SSE,149,0.0,0.0,62,0.00,OVC,OVC,0.00,0.0,WeatherDisplay:10.37,2013-03-03 09:35:00,
2013-03-03 02:40:00,39.0,27.1,29.78,SSE,149,0.0,1.1,62,0.00,OVC,OVC,0.00,0.0,WeatherDisplay:10.37,2013-03-03 09:40:00,
2013-03-03 02:45:00,39.0,27.1,29.78,SSE,149,1.3,2.3,62,0.00,OVC,OVC,0.00,0.0,WeatherDisplay:10.37,2013-03-03 09:45:00,
2013-03-03 02:50:00,39.0,26.7,29.78,SSE,149,0.0,0.0,61,0.00,OVC,OVC,0.00,0.0,WeatherDisplay:10.37,2013-03-03 09:50:00,
2013-03-03 02:55:00,39.0,26.7,29.78,SSE,149,0.0,0.0,61,0.00,OVC,OVC,0.00,0.0,WeatherDisplay:10.37,2013-03-03 09:55:00,
2013-03-03 03:00:00,39.1,26.8,29.77,SSE,149,0.1,1.1,61,0.00,OVC,OVC,0.00,0.0,WeatherDisplay:10.37,2013-03-03 10:00:00,
2013-03-03 03:05:00,39.1,26.8,29.77,SSE,149,0.4,2.3,61,0.00,BKN,BKN,0.00,0.0,WeatherDisplay:10.37,2013-03-03 10:05:00,
2013-03-03 03:10:00,39.1,26.8,29.76,SSE,149,1.2,3.4,61,0.00,BKN,BKN,0.00,0.0,WeatherDisplay:10.37,2013-03-03 10:10:00,
2013-03-03 03:15:00,39.1,26.8,29.77,SSE,149,0.0,0.0,61,0.00,BKN,BKN,0.00,0.0,WeatherDisplay:10.37,2013-03-03 10:15:00,
2013-03-03 03:20:00,39.0,26.7,29.77,SSE,149,0.0,0.0,61,0.00,BKN,BKN,0.00,0.0,WeatherDisplay:10.37,2013-03-03 10:20:00,
2013-03-03 03:25:00,39.0,26.7,29.76,SSE,149,0.0,0.0,61,0.00,BKN,BKN,0.00,0.0,WeatherDisplay:10.37,2013-03-03 10:25:00,
2013-03-03 03:30:00,39.0,26.3,29.76,SSE,149,0.0,0.0,60,0.00,BKN,BKN,0.00,0.0,WeatherDisplay:10.37,2013-03-03 10:30:00,
2013-03-03 03:35:00,39.1,26.0,29.76,SSE,149,0.0,0.0,59,0.00,BKN,BKN,0.00,0.0,WeatherDisplay:10.37,2013-03-03 10:35:00,
2013-03-03 03:40:00,39.3,25.7,29.75,SSE,149,1.1,3.4,58,0.00,BKN,BKN,0.00,0.0,WeatherDisplay:10.37,2013-03-03 10:40:00,
2013-03-03 03:45:00,39.5,25.5,29.75,SSE,149,0.0,0.0,57,0.00,BKN,BKN,0.00,0.0,WeatherDisplay:10.37,2013-03-03 10:45:00,
2013-03-03 03:50:00,39.7,24.8,29.76,SSE,149,0.3,2.3,55,0.00,BKN,BKN,0.00,0.0,WeatherDisplay:10.37,2013-03-03 10:50:00,
2013-03-03 03:55:00,39.9,24.6,29.75,SSE,149,1.3,2.3,54,0.00,BKN,BKN,0.00,0.0,WeatherDisplay:10.37,2013-03-03 10:55:00,
2013-03-03 04:00:00,40.1,24.8,29.75,SSE,149,0.0,0.0,54,0.00,BKN,BKN,0.00,0.0,WeatherDisplay:10.37,2013-03-03 11:00:00,
2013-03-03 04:05:00,40.3,25.0,29.77,SSE,149,0.0,0.0,54,0.00,BKN,BKN,0.00,0.0,WeatherDisplay:10.37,2013-03-03 11:05:00,
2013-03-03 04:10:00,40.3,24.5,29.77,SSE,149,0.0,0.0,53,0.00,BKN,BKN,0.00,0.0,WeatherDisplay:10.37,2013-03-03 11:10:00,
2013-03-03 04:15:00,40.4,24.1,29.76,SSE,155,2.6,3.4,52,0.00,BKN,BKN,0.00,0.0,WeatherDisplay:10.37,2013-03-03 11:15:00,
2013-03-03 04:20:00,40.5,23.8,29.75,South,182,2.7,3.4,51,0.00,BKN,BKN,0.00,0.0,WeatherDisplay:10.37,2013-03-03 11:20:00,
2013-03-03 04:25:00,40.7,24.0,29.75,South,180,1.7,3.4,51,0.00,BKN,BKN,0.00,0.0,WeatherDisplay:10.37,2013-03-03 11:25:00,
2013-03-03 04:30:00,41.0,23.8,29.75,South,179,2.3,3.4,50,0.00,BKN,BKN,0.00,0.0,WeatherDisplay:10.37,2013-03-03 11:30:00,
2013-03-03 04:35:00,41.1,23.4,29.75,South,180,0.2,1.1,49,0.00,BKN,BKN,0.00,0.0,WeatherDisplay:10.37,2013-03-03 11:35:00,
2013-03-03 04:40:00,41.3,24.0,29.75,South,180,1.8,3.4,50,0.00,BKN,BKN,0.00,0.0,WeatherDisplay:10.37,2013-03-03 11:40:00,
2013-03-03 04:45:00,41.4,23.6,29.75,South,180,0.0,0.0,49,0.00,BKN,BKN,0.00,0.0,WeatherDisplay:10.37,2013-03-03 11:45:00,
2013-03-03 04:50:00,41.4,23.6,29.75,South,179,1.5,3.4,49,0.00,BKN,BKN,0.00,0.0,WeatherDisplay:10.37,2013-03-03 11:50:00,
2013-03-03 04:55:00,41.5,23.2,29.74,South,179,1.1,2.3,48,0.00,BKN,BKN,0.00,0.0,WeatherDisplay:10.37,2013-03-03 11:55:00,
2013-03-03 05:00:00,41.7,22.9,29.74,South,180,1.0,2.3,47,0.00,BKN,BKN,0.00,0.0,WeatherDisplay:10.37,2013-03-03 12:00:00,
2013-03-03 05:05:00,41.8,23.0,29.75,South,180,0.0,1.1,47,0.00,BKN,BKN,0.00,0.0,WeatherDisplay:10.37,2013-03-03 12:05:00,
2013-03-03 05:10:00,41.9,23.1,29.75,South,179,2.0,3.4,47,0.00,BKN,BKN,0.00,0.0,WeatherDisplay:10.37,2013-03-03 12:10:00,
2013-03-03 05:15:00,42.0,22.7,29.75,South,180,1.3,3.4,46,0.00,BKN,BKN,0.00,0.0,WeatherDisplay:10.37,2013-03-03 12:15:00,
2013-03-03 05:20:00,42.1,22.3,29.74,South,182,1.0,3.4,45,0.00,BKN,BKN,0.00,0.0,WeatherDisplay:10.37,2013-03-03 12:20:00,
2013-03-03 05:25:00,42.3,21.9,29.74,South,180,0.8,4.6,44,0.00,BKN,BKN,0.00,0.0,WeatherDisplay:10.37,2013-03-03 12:25:00,
2013-03-03 05:30:00,42.5,22.1,29.74,South,180,0.0,0.0,44,0.00,BKN,BKN,0.00,0.0,WeatherDisplay:10.37,2013-03-03 12:30:00,
2013-03-03 05:35:00,42.6,21.6,29.74,South,183,2.5,4.0,43,0.00,BKN,BKN,0.00,0.0,WeatherDisplay:10.37,2013-03-03 12:35:00,
2013-03-03 05:40:00,42.8,21.8,29.74,South,178,1.9,6.9,43,0.00,BKN,BKN,0.00,0.0,WeatherDisplay:10.37,2013-03-03 12:40:00,
2013-03-03 05:45:00,43.0,22.0,29.74,South,184,0.9,3.0,43,0.00,BKN,BKN,0.00,0.0,WeatherDisplay:10.37,2013-03-03 12:45:00,
2013-03-03 05:50:00,43.3,21.7,29.74,SSE,165,0.8,4.0,42,0.00,BKN,BKN,0.00,0.0,WeatherDisplay:10.37,2013-03-03 12:50:00,
2013-03-03 05:55:00,43.6,22.0,29.72,SE,140,0.3,2.3,42,0.00,BKN,BKN,0.00,0.0,WeatherDisplay:10.37,2013-03-03 12:55:00,
2013-03-03 06:00:00,43.7,21.5,29.72,SE,140,0.5,2.3,41,0.00,BKN,BKN,0.00,0.0,WeatherDisplay:10.37,2013-03-03 13:00:00,
2013-03-03 06:05:00,43.8,21.6,29.73,SSW,192,1.2,3.4,41,0.00,BKN,BKN,0.00,0.0,WeatherDisplay:10.37,2013-03-03 13:05:00,
2013-03-03 06:10:00,43.8,21.0,29.73,South,190,2.7,4.6,40,0.00,BKN,BKN,0.00,0.0,WeatherDisplay:10.37,2013-03-03 13:10:00,
2013-03-03 06:15:00,43.8,21.0,29.73,SW,217,0.3,3.4,40,0.00,BKN,BKN,0.00,0.0,WeatherDisplay:10.37,2013-03-03 13:15:00,
2013-03-03 06:20:00,43.8,21.0,29.72,SW,217,1.2,3.4,40,0.00,BKN,BKN,0.00,0.0,WeatherDisplay:10.37,2013-03-03 13:20:00,
2013-03-03 06:25:00,43.8,21.0,29.72,SW,217,0.6,2.3,40,0.00,BKN,BKN,0.00,0.0,WeatherDisplay:10.37,2013-03-03 13:25:00,
2013-03-03 06:30:00,43.7,20.9,29.72,SW,217,1.1,3.0,40,0.00,BKN,BKN,0.00,0.0,WeatherDisplay:10.37,2013-03-03 13:30:00,
2013-03-03 06:35:00,43.7,20.3,29.72,SW,217,0.0,0.0,39,0.00,BKN,BKN,0.00,7.0,WeatherDisplay:10.37,2013-03-03 13:35:00,
2013-03-03 06:40:00,43.8,20.4,29.72,SW,218,0.1,1.1,39,0.00,BKN,BKN,0.00,12.0,WeatherDisplay:10.37,2013-03-03 13:40:00,
2013-03-03 06:45:00,43.8,20.4,29.73,SW,217,0.3,2.3,39,0.00,BKN,BKN,0.00,19.0,WeatherDisplay:10.37,2013-03-03 13:45:00,
2013-03-03 06:50:00,43.9,20.5,29.72,SW,227,0.0,0.0,39,0.00,BKN,BKN,0.00,28.0,WeatherDisplay:10.37,2013-03-03 13:50:00,
2013-03-03 06:55:00,43.9,20.5,29.72,SW,220,0.3,2.0,39,0.00,BKN,BKN,0.00,35.0,WeatherDisplay:10.37,2013-03-03 13:55:00,
2013-03-03 07:00:00,43.9,20.5,29.72,SW,221,0.5,2.3,39,0.00,BKN,BKN,0.00,46.0,WeatherDisplay:10.37,2013-03-03 14:00:00,
2013-03-03 07:05:00,44.0,20.6,29.74,SW,222,0.0,0.0,39,0.00,BKN,BKN,0.00,42.0,WeatherDisplay:10.37,2013-03-03 14:05:00,
2013-03-03 07:10:00,44.0,20.6,29.74,SW,222,0.5,2.0,39,0.00,BKN,BKN,0.00,39.0,WeatherDisplay:10.37,2013-03-03 14:10:00,
2013-03-03 07:15:00,44.1,20.7,29.75,SW,222,1.0,3.4,39,0.00,BKN,BKN,0.00,40.0,WeatherDisplay:10.37,2013-03-03 14:15:00,
2013-03-03 07:20:00,44.1,20.7,29.75,SW,221,0.5,2.3,39,0.00,BKN,BKN,0.00,67.0,WeatherDisplay:10.37,2013-03-03 14:20:00,
2013-03-03 07:25:00,44.1,20.7,29.76,SW,223,0.0,0.0,39,0.00,BKN,BKN,0.00,169.0,WeatherDisplay:10.37,2013-03-03 14:25:00,
2013-03-03 07:30:00,44.3,20.9,29.76,SW,223,0.8,2.3,39,0.00,BKN,BKN,0.00,213.0,WeatherDisplay:10.37,2013-03-03 14:30:00,
2013-03-03 07:35:00,44.7,21.2,29.75,SW,223,0.3,2.3,39,0.00,BKN,BKN,0.00,267.0,WeatherDisplay:10.37,2013-03-03 14:35:00,
2013-03-03 07:40:00,45.1,21.6,29.74,SW,219,1.6,3.4,39,0.00,BKN,BKN,0.00,141.0,WeatherDisplay:10.37,2013-03-03 14:40:00,
2013-03-03 07:45:00,45.3,21.8,29.74,SW,219,0.7,2.3,39,0.00,BKN,BKN,0.00,118.0,WeatherDisplay:10.37,2013-03-03 14:45:00,
2013-03-03 07:50:00,45.3,21.8,29.74,South,186,1.8,5.8,39,0.00,BKN,BKN,0.00,121.0,WeatherDisplay:10.37,2013-03-03 14:50:00,
2013-03-03 07:55:00,45.2,21.7,29.74,South,188,0.0,0.0,39,0.00,BKN,BKN,0.00,105.0,WeatherDisplay:10.37,2013-03-03 14:55:00,
2013-03-03 08:00:00,45.2,21.7,29.74,South,187,1.5,3.4,39,0.00,BKN,BKN,0.00,100.0,WeatherDisplay:10.37,2013-03-03 15:00:00,
2013-03-03 08:05:00,45.1,21.6,29.77,South,188,1.2,3.4,39,0.00,BKN,BKN,0.00,125.0,WeatherDisplay:10.37,2013-03-03 15:05:00,
2013-03-03 08:10:00,45.1,21.6,29.77,SSW,195,6.1,10.3,39,0.00,BKN,BKN,0.00,128.0,WeatherDisplay:10.37,2013-03-03 15:10:00,
2013-03-03 08:15:00,45.4,21.2,29.75,SE,133,5.0,8.1,38,0.00,BKN,BKN,0.00,176.0,WeatherDisplay:10.37,2013-03-03 15:15:00,
2013-03-03 08:20:00,45.8,21.6,29.75,SSE,166,1.3,3.4,38,0.00,BKN,BKN,0.00,195.0,WeatherDisplay:10.37,2013-03-03 15:20:00,
2013-03-03 08:25:00,46.2,22.0,29.75,SSE,166,0.2,1.1,38,0.00,BKN,BKN,0.00,137.0,WeatherDisplay:10.37,2013-03-03 15:25:00,
2013-03-03 08:30:00,46.5,21.6,29.75,SSE,166,0.4,2.3,37,0.00,BKN,BKN,0.00,167.0,WeatherDisplay:10.37,2013-03-03 15:30:00,
2013-03-03 08:35:00,47.0,22.0,29.75,SSE,166,0.0,0.0,37,0.00,BKN,BKN,0.00,163.0,WeatherDisplay:10.37,2013-03-03 15:35:00,
2013-03-03 08:40:00,47.3,22.3,29.76,SSE,165,0.0,1.1,37,0.00,BKN,BKN,0.00,139.0,WeatherDisplay:10.37,2013-03-03 15:40:00,
2013-03-03 08:45:00,47.4,21.7,29.75,SSE,167,2.5,3.4,36,0.00,BKN,BKN,0.00,120.0,WeatherDisplay:10.37,2013-03-03 15:45:00,
2013-03-03 08:50:00,47.4,22.4,29.75,SSE,167,0.3,1.1,37,0.00,BKN,BKN,0.00,169.0,WeatherDisplay:10.37,2013-03-03 15:50:00,
2013-03-03 08:55:00,47.5,22.5,29.74,SSE,167,1.0,3.0,37,0.00,BKN,BKN,0.00,306.0,WeatherDisplay:10.37,2013-03-03 15:55:00,
2013-03-03 09:00:00,47.8,22.8,29.74,SSE,167,1.0,2.3,37,0.00,BKN,BKN,0.00,209.0,WeatherDisplay:10.37,2013-03-03 16:00:00,
2013-03-03 09:05:00,47.9,22.8,29.76,South,171,0.0,0.0,37,0.00,BKN,BKN,0.00,179.0,WeatherDisplay:10.37,2013-03-03 16:05:00,
2013-03-03 09:10:00,48.1,23.0,29.76,South,173,2.2,3.4,37,0.00,BKN,BKN,0.00,183.0,WeatherDisplay:10.37,2013-03-03 16:10:00,
2013-03-03 09:15:00,48.2,23.1,29.76,SSW,205,0.1,2.3,37,0.00,BKN,BKN,0.00,311.0,WeatherDisplay:10.37,2013-03-03 16:15:00,
2013-03-03 09:20:00,48.6,23.5,29.74,SSW,205,0.7,2.3,37,0.00,BKN,BKN,0.00,457.0,WeatherDisplay:10.37,2013-03-03 16:20:00,
2013-03-03 09:25:00,49.3,23.4,29.74,SSW,205,0.1,2.0,36,0.00,BKN,BKN,0.00,362.0,WeatherDisplay:10.37,2013-03-03 16:25:00,
2013-03-03 09:30:00,50.3,24.3,29.74,SSW,205,0.4,1.1,36,0.00,BKN,BKN,0.00,339.0,WeatherDisplay:10.37,2013-03-03 16:30:00,
2013-03-03 09:35:00,51.0,24.3,29.72,SSW,206,0.5,2.3,35,0.00,BKN,BKN,0.00,599.0,WeatherDisplay:10.37,2013-03-03 16:35:00,
2013-03-03 09:40:00,51.6,24.1,29.72,SSW,209,1.8,3.4,34,0.00,BKN,BKN,0.00,466.0,WeatherDisplay:10.37,2013-03-03 16:40:00,
2013-03-03 09:45:00,51.7,23.5,29.71,SSW,213,1.0,3.4,33,0.00,BKN,BKN,0.00,257.0,WeatherDisplay:10.37,2013-03-03 16:45:00,
2013-03-03 09:50:00,52.1,23.8,29.71,SSW,213,0.6,3.4,33,0.00,BKN,BKN,0.00,691.0,WeatherDisplay:10.37,2013-03-03 16:50:00,
2013-03-03 09:55:00,52.8,24.5,29.70,SSW,213,1.8,3.4,33,0.00,BKN,BKN,0.00,610.0,WeatherDisplay:10.37,2013-03-03 16:55:00,
2013-03-03 10:00:00,53.5,24.3,29.70,SSW,213,0.7,2.3,32,0.00,BKN,BKN,0.00,243.0,WeatherDisplay:10.37,2013-03-03 17:00:00,
2013-03-03 10:05:00,53.7,24.5,29.69,SSW,213,0.1,1.1,32,0.00,BKN,BKN,0.00,221.0,WeatherDisplay:10.37,2013-03-03 17:05:00,
2013-03-03 10:10:00,54.4,24.4,29.69,SSW,207,0.3,3.4,31,0.00,BKN,BKN,0.00,705.0,WeatherDisplay:10.37,2013-03-03 17:10:00,
2013-03-03 10:15:00,55.4,24.4,29.67,South,188,1.4,4.0,30,0.00,BKN,BKN,0.00,708.0,WeatherDisplay:10.37,2013-03-03 17:15:00,
2013-03-03 10:20:00,56.1,24.2,29.67,South,188,0.4,2.3,29,0.00,BKN,BKN,0.00,707.0,WeatherDisplay:10.37,2013-03-03 17:20:00,
2013-03-03 10:25:00,57.1,24.3,29.65,South,186,1.8,3.4,28,0.00,BKN,BKN,0.00,362.0,WeatherDisplay:10.37,2013-03-03 17:25:00,
2013-03-03 10:30:00,57.3,23.6,29.65,South,186,0.1,1.1,27,0.00,BKN,BKN,0.00,330.0,WeatherDisplay:10.37,2013-03-03 17:30:00,
2013-03-03 10:35:00,57.5,24.6,29.65,South,186,0.0,0.0,28,0.00,BKN,BKN,0.00,387.0,WeatherDisplay:10.37,2013-03-03 17:35:00,
2013-03-03 10:40:00,57.7,23.0,29.66,South,186,0.0,1.1,26,0.00,BKN,BKN,0.00,406.0,WeatherDisplay:10.37,2013-03-03 17:40:00,
2013-03-03 10:45:00,57.9,24.1,29.65,South,186,0.0,0.0,27,0.00,BKN,BKN,0.00,459.0,WeatherDisplay:10.37,2013-03-03 17:45:00,
2013-03-03 10:50:00,58.3,24.4,29.65,South,187,1.9,3.4,27,0.00,BKN,BKN,0.00,891.0,WeatherDisplay:10.37,2013-03-03 17:50:00,
2013-03-03 10:55:00,59.0,24.1,29.64,South,178,3.0,4.0,26,0.00,BKN,BKN,0.00,749.0,WeatherDisplay:10.37,2013-03-03 17:55:00,
2013-03-03 11:00:00,59.3,24.4,29.64,South,178,2.1,3.4,26,0.00,BKN,BKN,0.00,837.0,WeatherDisplay:10.37,2013-03-03 18:00:00,
2013-03-03 11:05:00,59.6,23.7,29.63,SSE,168,1.0,2.3,25,0.00,BKN,BKN,0.00,860.0,WeatherDisplay:10.37,2013-03-03 18:05:00,
2013-03-03 11:10:00,60.0,25.0,29.63,SSW,196,2.0,3.4,26,0.00,BKN,BKN,0.00,424.0,WeatherDisplay:10.37,2013-03-03 18:10:00,
2013-03-03 11:15:00,59.9,24.9,29.63,SSW,197,0.1,1.1,26,0.00,BKN,BKN,0.00,403.0,WeatherDisplay:10.37,2013-03-03 18:15:00,
2013-03-03 11:20:00,59.9,23.9,29.63,SSE,153,0.1,2.3,25,0.00,BKN,BKN,0.00,494.0,WeatherDisplay:10.37,2013-03-03 18:20:00,
2013-03-03 11:25:00,59.9,23.9,29.62,SSE,153,0.1,1.0,25,0.00,BKN,BKN,0.00,369.0,WeatherDisplay:10.37,2013-03-03 18:25:00,
2013-03-03 11:30:00,60.1,25.1,29.62,SSE,153,0.1,1.1,26,0.00,BKN,BKN,0.00,476.0,WeatherDisplay:10.37,2013-03-03 18:30:00,
2013-03-03 11:35:00,60.4,25.3,29.61,SSE,152,0.3,2.3,26,0.00,BKN,BKN,0.00,613.0,WeatherDisplay:10.37,2013-03-03 18:35:00,
2013-03-03 11:40:00,60.5,24.5,29.62,SSE,153,0.7,2.3,25,0.00,BKN,BKN,0.00,592.0,WeatherDisplay:10.37,2013-03-03 18:40:00,
2013-03-03 11:45:00,60.4,24.4,29.61,SSE,154,1.4,3.4,25,0.00,BKN,BKN,0.00,406.0,WeatherDisplay:10.37,2013-03-03 18:45:00,
2013-03-03 11:50:00,60.4,24.4,29.60,SSE,154,1.0,3.0,25,0.00,BKN,BKN,0.00,397.0,WeatherDisplay:10.37,2013-03-03 18:50:00,
2013-03-03 11:55:00,60.4,24.4,29.60,SSE,152,0.0,1.1,25,0.00,BKN,BKN,0.00,373.0,WeatherDisplay:10.37,2013-03-03 18:55:00,
2013-03-03 12:00:00,60.5,24.5,29.59,SSE,153,1.5,3.4,25,0.00,BKN,BKN,0.00,343.0,WeatherDisplay:10.37,2013-03-03 19:00:00,
2013-03-03 12:05:00,60.5,25.4,29.59,SE,145,0.9,3.0,26,0.00,BKN,BKN,0.00,311.0,WeatherDisplay:10.37,2013-03-03 19:05:00,
2013-03-03 12:10:00,60.5,24.5,29.59,SSE,164,0.8,4.6,25,0.00,BKN,BKN,0.00,378.0,WeatherDisplay:10.37,2013-03-03 19:10:00,
2013-03-03 12:15:00,60.3,25.2,29.60,SSE,164,1.1,3.4,26,0.00,BKN,BKN,0.00,367.0,WeatherDisplay:10.37,2013-03-03 19:15:00,
2013-03-03 12:20:00,60.3,25.2,29.59,SSE,150,3.9,5.8,26,0.00,BKN,BKN,0.00,334.0,WeatherDisplay:10.37,2013-03-03 19:20:00,
2013-03-03 12:25:00,60.3,24.3,29.59,SE,142,6.0,9.2,25,0.00,BKN,BKN,0.00,418.0,WeatherDisplay:10.37,2013-03-03 19:25:00,
2013-03-03 12:30:00,60.1,25.1,29.58,SSE,155,1.7,5.0,26,0.00,BKN,BKN,0.00,520.0,WeatherDisplay:10.37,2013-03-03 19:30:00,
2013-03-03 12:35:00,60.3,24.3,29.58,SE,141,5.5,6.9,25,0.00,BKN,BKN,0.00,438.0,WeatherDisplay:10.37,2013-03-03 19:35:00,
2013-03-03 12:40:00,60.5,25.4,29.56,SE,128,1.2,4.0,26,0.00,BKN,BKN,0.00,548.0,WeatherDisplay:10.37,2013-03-03 19:40:00,
2013-03-03 12:45:00,60.9,23.8,29.56,SSE,150,5.8,9.2,24,0.00,BKN,BKN,0.00,826.0,WeatherDisplay:10.37,2013-03-03 19:45:00,
2013-03-03 12:50:00,60.9,23.8,29.56,SSE,161,3.4,5.0,24,0.00,BKN,BKN,0.00,621.0,WeatherDisplay:10.37,2013-03-03 19:50:00,
2013-03-03 12:55:00,61.0,22.9,29.56,SSE,159,3.3,6.0,23,0.00,BKN,BKN,0.00,596.0,WeatherDisplay:10.37,2013-03-03 19:55:00,
2013-03-03 13:00:00,61.4,23.2,29.55,SE,136,1.1,3.4,23,0.00,BKN,BKN,0.00,594.0,WeatherDisplay:10.37,2013-03-03 20:00:00,
2013-03-03 13:05:00,61.5,22.3,29.55,SE,144,3.0,4.6,22,0.00,BKN,BKN,0.00,506.0,WeatherDisplay:10.37,2013-03-03 20:05:00,
2013-03-03 13:10:00,61.5,22.3,29.55,SE,139,1.4,3.4,22,0.00,BKN,BKN,0.00,534.0,WeatherDisplay:10.37,2013-03-03 20:10:00,
2013-03-03 13:15:00,61.5,23.3,29.54,ESE,118,1.0,2.3,23,0.00,BKN,BKN,0.00,568.0,WeatherDisplay:10.37,2013-03-03 20:15:00,
2013-03-03 13:20:00,61.8,24.6,29.54,ESE,123,3.1,10.3,24,0.00,BKN,BKN,0.00,485.0,WeatherDisplay:10.37,2013-03-03 20:20:00,
2013-03-03 13:25:00,62.1,24.8,29.53,SE,139,6.1,10.3,24,0.00,BKN,BKN,0.00,512.0,WeatherDisplay:10.37,2013-03-03 20:25:00,
2013-03-03 13:30:00,62.2,23.9,29.54,SSE,152,1.5,5.0,23,0.00,BKN,BKN,0.00,503.0,WeatherDisplay:10.37,2013-03-03 20:30:00,
2013-03-03 13:35:00,62.3,24.0,29.53,SSE,158,2.1,3.4,23,0.00,BKN,BKN,0.00,584.0,WeatherDisplay:10.37,2013-03-03 20:35:00,
2013-03-03 13:40:00,62.6,24.2,29.52,SSE,159,3.1,6.9,23,0.00,BKN,BKN,0.00,566.0,WeatherDisplay:10.37,2013-03-03 20:40:00,
2013-03-03 13:45:00,62.5,24.2,29.52,SE,130,1.0,4.6,23,0.00,BKN,BKN,0.00,547.0,WeatherDisplay:10.37,2013-03-03 20:45:00,
2013-03-03 13:50:00,62.4,24.1,29.52,SE,137,6.8,10.3,23,0.00,BKN,BKN,0.00,497.0,WeatherDisplay:10.37,2013-03-03 20:50:00,
2013-03-03 13:55:00,62.2,23.9,29.52,South,169,4.2,5.8,23,0.00,BKN,BKN,0.00,503.0,WeatherDisplay:10.37,2013-03-03 20:55:00,
2013-03-03 14:00:00,62.0,23.7,29.52,SE,127,2.3,7.0,23,0.00,BKN,BKN,0.00,468.0,WeatherDisplay:10.37,2013-03-03 21:00:00,
2013-03-03 14:05:00,62.1,24.8,29.51,ESE,113,2.7,5.0,24,0.00,BKN,BKN,0.00,478.0,WeatherDisplay:10.37,2013-03-03 21:05:00,
2013-03-03 14:10:00,62.1,23.8,29.51,SSE,148,5.1,6.9,23,0.00,BKN,BKN,0.00,506.0,WeatherDisplay:10.37,2013-03-03 21:10:00,
2013-03-03 14:15:00,62.2,23.9,29.51,SE,146,4.3,6.9,23,0.00,BKN,BKN,0.00,552.0,WeatherDisplay:10.37,2013-03-03 21:15:00,
2013-03-03 14:20:00,62.5,24.2,29.50,South,175,6.6,11.5,23,0.00,BKN,BKN,0.00,534.0,WeatherDisplay:10.37,2013-03-03 21:20:00,
2013-03-03 14:25:00,62.5,24.2,29.50,SSE,159,0.3,1.1,23,0.00,BKN,BKN,0.00,571.0,WeatherDisplay:10.37,2013-03-03 21:25:00,
2013-03-03 14:30:00,62.8,24.4,29.50,SE,134,7.5,11.5,23,0.00,BKN,BKN,0.00,589.0,WeatherDisplay:10.37,2013-03-03 21:30:00,
2013-03-03 14:35:00,62.7,24.3,29.50,SSE,156,4.8,8.1,23,0.00,BKN,BKN,0.00,483.0,WeatherDisplay:10.37,2013-03-03 21:35:00,
2013-03-03 14:40:00,62.6,23.2,29.50,SE,141,1.0,5.0,22,0.00,BKN,BKN,0.00,417.0,WeatherDisplay:10.37,2013-03-03 21:40:00,
2013-03-03 14:45:00,62.5,23.1,29.50,SE,138,0.1,1.1,22,0.00,BKN,BKN,0.00,462.0,WeatherDisplay:10.37,2013-03-03 21:45:00,
2013-03-03 14:50:00,62.7,24.3,29.50,SE,128,2.6,3.4,23,0.00,BKN,BKN,0.00,441.0,WeatherDisplay:10.37,2013-03-03 21:50:00,
2013-03-03 14:55:00,63.0,24.6,29.50,ESE,107,3.7,10.0,23,0.00,BKN,BKN,0.00,475.0,WeatherDisplay:10.37,2013-03-03 21:55:00,
2013-03-03 15:00:00,63.0,23.5,29.50,ESE,114,3.0,6.9,22,0.00,BKN,BKN,0.00,468.0,WeatherDisplay:10.37,2013-03-03 22:00:00,
2013-03-03 15:05:00,62.8,23.3,29.50,East,80,3.3,4.6,22,0.00,BKN,BKN,0.00,334.0,WeatherDisplay:10.37,2013-03-03 22:05:00,
2013-03-03 15:10:00,62.7,23.3,29.50,ESE,118,1.0,4.6,22,0.00,BKN,BKN,0.00,350.0,WeatherDisplay:10.37,2013-03-03 22:10:00,
2013-03-03 15:15:00,62.6,23.2,29.50,ESE,121,0.3,2.3,22,0.00,BKN,BKN,0.00,392.0,WeatherDisplay:10.37,2013-03-03 22:15:00,
2013-03-03 15:20:00,62.7,24.3,29.50,ESE,121,0.1,1.1,23,0.00,BKN,BKN,0.00,534.0,WeatherDisplay:10.37,2013-03-03 22:20:00,
2013-03-03 15:25:00,63.4,23.8,29.49,SSE,155,4.5,6.9,22,0.00,BKN,BKN,0.00,431.0,WeatherDisplay:10.37,2013-03-03 22:25:00,
2013-03-03 15:30:00,63.2,23.7,29.49,SE,133,3.8,6.9,22,0.00,BKN,BKN,0.00,446.0,WeatherDisplay:10.37,2013-03-03 22:30:00,
2013-03-03 15:35:00,63.1,23.6,29.49,SSE,149,2.5,5.8,22,0.00,BKN,BKN,0.00,529.0,WeatherDisplay:10.37,2013-03-03 22:35:00,
2013-03-03 15:40:00,62.9,23.4,29.50,ESE,105,1.3,3.4,22,0.00,BKN,BKN,0.00,334.0,WeatherDisplay:10.37,2013-03-03 22:40:00,
2013-03-03 15:45:00,63.0,24.6,29.49,ESE,121,2.3,3.4,23,0.00,BKN,BKN,0.00,229.0,WeatherDisplay:10.37,2013-03-03 22:45:00,
2013-03-03 15:50:00,62.9,24.5,29.49,East,97,6.2,10.0,23,0.00,BKN,BKN,0.00,260.0,WeatherDisplay:10.37,2013-03-03 22:50:00,
2013-03-03 15:55:00,62.4,25.1,29.49,ESE,107,3.8,5.8,24,0.00,BKN,BKN,0.00,264.0,WeatherDisplay:10.37,2013-03-03 22:55:00,
2013-03-03 16:00:00,61.9,23.6,29.49,ESE,121,5.1,9.2,23,0.00,BKN,BKN,0.00,221.0,WeatherDisplay:10.37,2013-03-03 23:00:00,
2013-03-03 16:05:00,61.5,24.3,29.48,East,86,4.6,6.9,24,0.00,BKN,BKN,0.00,195.0,WeatherDisplay:10.37,2013-03-03 23:05:00,
2013-03-03 16:10:00,61.1,24.0,29.50,East,94,3.4,5.8,24,0.00,BKN,BKN,0.00,183.0,WeatherDisplay:10.37,2013-03-03 23:10:00,
2013-03-03 16:15:00,60.8,24.7,29.50,East,96,2.5,3.4,25,0.00,BKN,BKN,0.00,148.0,WeatherDisplay:10.37,2013-03-03 23:15:00,
2013-03-03 16:20:00,60.5,23.5,29.50,ESE,121,1.9,3.4,24,0.00,BKN,BKN,0.00,167.0,WeatherDisplay:10.37,2013-03-03 23:20:00,
2013-03-03 16:25:00,60.3,24.3,29.50,SE,133,4.3,8.1,25,0.00,BKN,BKN,0.00,158.0,WeatherDisplay:10.37,2013-03-03 23:25:00,
2013-03-03 16:30:00,60.1,24.1,29.50,SE,132,2.5,4.6,25,0.00,BKN,BKN,0.00,148.0,WeatherDisplay:10.37,2013-03-03 23:30:00,
2013-03-03 16:35:00,59.9,23.9,29.50,ESE,103,4.7,5.8,25,0.00,BKN,BKN,0.00,128.0,WeatherDisplay:10.37,2013-03-03 23:35:00,
2013-03-03 16:40:00,59.6,24.6,29.50,East,92,4.1,5.8,26,0.00,BKN,BKN,0.00,174.0,WeatherDisplay:10.37,2013-03-03 23:40:00,
2013-03-03 16:45:00,59.5,24.5,29.50,East,93,0.8,3.4,26,0.00,BKN,BKN,0.00,125.0,WeatherDisplay:10.37,2013-03-03 23:45:00,
2013-03-03 16:50:00,59.4,24.5,29.50,ESE,106,5.1,6.9,26,0.00,BKN,BKN,0.00,139.0,WeatherDisplay:10.37,2013-03-03 23:50:00,
2013-03-03 16:55:00,59.3,25.3,29.51,ESE,113,1.0,3.4,27,0.00,BKN,BKN,0.00,144.0,WeatherDisplay:10.37,2013-03-03 23:55:00,
2013-03-03 17:00:00,59.3,25.3,29.50,ESE,113,1.4,3.4,27,0.00,BKN,BKN,0.00,186.0,WeatherDisplay:10.37,2013-03-04 00:00:00,
2013-03-03 17:05:00,59.4,25.4,29.49,East,89,4.3,5.8,27,0.00,BKN,BKN,0.00,146.0,WeatherDisplay:10.37,2013-03-04 00:05:00,
2013-03-03 17:10:00,59.4,25.4,29.49,SE,140,3.9,5.8,27,0.00,BKN,BKN,0.00,155.0,WeatherDisplay:10.37,2013-03-04 00:10:00,
2013-03-03 17:15:00,59.3,25.3,29.49,SSE,148,2.2,4.6,27,0.00,BKN,BKN,0.00,91.0,WeatherDisplay:10.37,2013-03-04 00:15:00,
2013-03-03 17:20:00,59.1,25.1,29.49,SSE,148,1.7,3.0,27,0.00,BKN,BKN,0.00,67.0,WeatherDisplay:10.37,2013-03-04 00:20:00,
2013-03-03 17:25:00,59.0,25.0,29.49,SSE,153,3.0,4.6,27,0.00,BKN,BKN,0.00,42.0,WeatherDisplay:10.37,2013-03-04 00:25:00,
2013-03-03 17:30:00,58.8,24.9,29.49,WNW,294,2.2,3.4,27,0.00,BKN,BKN,0.00,32.0,WeatherDisplay:10.37,2013-03-04 00:30:00,
2013-03-03 17:35:00,58.4,25.4,29.50,WSW,248,3.7,6.9,28,0.00,BKN,BKN,0.00,23.0,WeatherDisplay:10.37,2013-03-04 00:35:00,
2013-03-03 17:40:00,58.0,25.0,29.50,WSW,248,1.3,4.6,28,0.00,BKN,BKN,0.00,18.0,WeatherDisplay:10.37,2013-03-04 00:40:00,
2013-03-03 17:45:00,57.7,24.8,29.50,WNW,291,2.0,8.1,28,0.00,BKN,BKN,0.00,12.0,WeatherDisplay:10.37,2013-03-04 00:45:00,
2013-03-03 17:50:00,57.5,24.6,29.51,WNW,300,1.0,3.4,28,0.00,BKN,BKN,0.00,7.0,WeatherDisplay:10.37,2013-03-04 00:50:00,
2013-03-03 17:55:00,57.3,25.3,29.53,NW,311,0.0,0.0,29,0.00,BKN,BKN,0.00,0.0,WeatherDisplay:10.37,2013-03-04 00:55:00,
2013-03-03 18:00:00,57.0,25.0,29.53,NW,320,1.1,4.0,29,0.00,BKN,BKN,0.00,0.0,WeatherDisplay:10.37,2013-03-04 01:00:00,
2013-03-03 18:05:00,56.7,24.8,29.53,WNW,283,2.0,3.4,29,0.00,BKN,BKN,0.00,0.0,WeatherDisplay:10.37,2013-03-04 01:05:00,
2013-03-03 18:10:00,56.4,25.3,29.54,WNW,288,0.0,0.0,30,0.00,BKN,BKN,0.00,0.0,WeatherDisplay:10.37,2013-03-04 01:10:00,
2013-03-03 18:15:00,56.2,25.1,29.54,WNW,284,1.2,5.0,30,0.00,BKN,BKN,0.00,0.0,WeatherDisplay:10.37,2013-03-04 01:15:00,
2013-03-03 18:20:00,55.9,24.9,29.54,NNW,336,6.4,10.3,30,0.00,BKN,BKN,0.00,0.0,WeatherDisplay:10.37,2013-03-04 01:20:00,
2013-03-03 18:25:00,55.7,24.7,29.54,NW,311,5.0,11.5,30,0.00,BKN,BKN,0.00,0.0,WeatherDisplay:10.37,2013-03-04 01:25:00,
2013-03-03 18:30:00,55.6,24.6,29.55,West,281,6.1,11.5,30,0.00,BKN,BKN,0.00,0.0,WeatherDisplay:10.37,2013-03-04 01:30:00,
2013-03-03 18:35:00,55.4,24.4,29.57,WNW,303,5.2,6.9,30,0.00,BKN,BKN,0.00,0.0,WeatherDisplay:10.37,2013-03-04 01:35:00,
2013-03-03 18:40:00,55.2,24.3,29.56,WNW,289,6.4,13.0,30,0.00,BKN,BKN,0.00,0.0,WeatherDisplay:10.37,2013-03-04 01:40:00,
2013-03-03 18:45:00,55.0,24.9,29.56,WNW,294,5.8,10.3,31,0.00,BKN,BKN,0.00,0.0,WeatherDisplay:10.37,2013-03-04 01:45:00,
2013-03-03 18:50:00,54.9,24.8,29.57,West,275,2.6,5.8,31,0.00,BKN,BKN,0.00,0.0,WeatherDisplay:10.37,2013-03-04 01:50:00,
2013-03-03 18:55:00,54.6,25.3,29.57,WNW,299,4.5,10.3,32,0.00,BKN,BKN,0.00,0.0,WeatherDisplay:10.37,2013-03-04 01:55:00,
2013-03-03 19:00:00,54.3,25.0,29.56,WSW,246,7.5,14.9,32,0.00,BKN,BKN,0.00,0.0,WeatherDisplay:10.37,2013-03-04 02:00:00,
2013-03-03 19:05:00,54.0,24.8,29.56,West,279,5.6,11.5,32,0.00,BKN,BKN,0.00,0.0,WeatherDisplay:10.37,2013-03-04 02:05:00,
2013-03-03 19:10:00,53.8,25.3,29.56,WNW,299,6.0,9.0,33,0.00,BKN,BKN,0.00,0.0,WeatherDisplay:10.37,2013-03-04 02:10:00,
2013-03-03 19:15:00,53.6,25.2,29.56,SW,229,2.8,6.9,33,0.00,BKN,BKN,0.00,0.0,WeatherDisplay:10.37,2013-03-04 02:15:00,
2013-03-03 19:20:00,53.5,25.1,29.56,WNW,292,4.0,9.2,33,0.00,BKN,BKN,0.00,0.0,WeatherDisplay:10.37,2013-03-04 02:20:00,
2013-03-03 19:25:00,53.2,25.5,29.56,West,267,2.2,3.4,34,0.00,BKN,BKN,0.00,0.0,WeatherDisplay:10.37,2013-03-04 02:25:00,
2013-03-03 19:30:00,53.0,25.3,29.57,WNW,301,3.8,9.2,34,0.00,BKN,BKN,0.00,0.0,WeatherDisplay:10.37,2013-03-04 02:30:00,
2013-03-03 19:35:00,52.8,25.2,29.57,WNW,303,3.5,6.9,34,0.00,BKN,BKN,0.00,0.0,WeatherDisplay:10.37,2013-03-04 02:35:00,
2013-03-03 19:40:00,52.7,25.8,29.57,NW,309,2.6,4.0,35,0.00,BKN,BKN,0.00,0.0,WeatherDisplay:10.37,2013-03-04 02:40:00,
2013-03-03 19:45:00,52.5,25.6,29.57,WSW,254,3.3,10.0,35,0.00,BKN,BKN,0.00,0.0,WeatherDisplay:10.37,2013-03-04 02:45:00,
2013-03-03 19:50:00,52.3,26.1,29.58,West,281,6.1,11.5,36,0.00,BKN,BKN,0.00,0.0,WeatherDisplay:10.37,2013-03-04 02:50:00,
2013-03-03 19:55:00,52.2,25.3,29.57,SW,233,5.0,10.3,35,0.00,BKN,BKN,0.00,0.0,WeatherDisplay:10.37,2013-03-04 02:55:00,
2013-03-03 20:00:00,52.2,25.3,29.57,WSW,241,6.6,11.5,35,0.00,BKN,BKN,0.00,0.0,WeatherDisplay:10.37,2013-03-04 03:00:00,
2013-03-03 20:05:00,52.4,25.5,29.55,NW,305,7.6,11.5,35,0.00,BKN,BKN,0.00,0.0,WeatherDisplay:10.37,2013-03-04 03:05:00,
2013-03-03 20:10:00,52.7,25.1,29.54,WNW,295,6.6,12.6,34,0.00,BKN,BKN,0.00,0.0,WeatherDisplay:10.37,2013-03-04 03:10:00,
2013-03-03 20:15:00,52.8,25.2,29.54,NNW,341,8.3,16.1,34,0.00,BKN,BKN,0.00,0.0,WeatherDisplay:10.37,2013-03-04 03:15:00,
2013-03-03 20:20:00,52.9,25.3,29.54,NW,307,6.6,10.3,34,0.00,BKN,BKN,0.00,0.0,WeatherDisplay:10.37,2013-03-04 03:20:00,
2013-03-03 20:25:00,52.9,26.0,29.54,NW,309,6.4,21.0,35,0.00,BKN,BKN,0.00,0.0,WeatherDisplay:10.37,2013-03-04 03:25:00,
2013-03-03 20:30:00,53.0,25.3,29.54,WNW,289,10.9,23.0,34,0.00,BKN,BKN,0.00,0.0,WeatherDisplay:10.37,2013-03-04 03:30:00,
2013-03-03 20:35:00,53.1,25.4,29.54,NW,307,12.7,19.5,34,0.00,BKN,BKN,0.00,0.0,WeatherDisplay:10.37,2013-03-04 03:35:00,
2013-03-03 20:40:00,53.1,26.1,29.54,West,271,4.9,17.3,35,0.00,BKN,BKN,0.00,0.0,WeatherDisplay:10.37,2013-03-04 03:40:00,
2013-03-03 20:45:00,53.1,25.4,29.54,WNW,288,10.2,14.9,34,0.00,BKN,BKN,0.00,0.0,WeatherDisplay:10.37,2013-03-04 03:45:00,
2013-03-03 20:50:00,53.1,25.4,29.54,West,277,5.3,10.3,34,0.00,BKN,BKN,0.00,0.0,WeatherDisplay:10.37,2013-03-04 03:50:00,
2013-03-03 20:55:00,52.9,25.3,29.54,NW,322,6.2,11.5,34,0.00,BKN,BKN,0.00,0.0,WeatherDisplay:10.37,2013-03-04 03:55:00,
2013-03-03 21:00:00,52.8,25.9,29.54,WSW,254,8.6,14.9,35,0.00,BKN,BKN,0.00,0.0,WeatherDisplay:10.37,2013-03-04 04:00:00,
2013-03-03 21:05:00,52.6,25.7,29.51,WNW,301,6.6,14.0,35,0.00,BKN,BKN,0.00,0.0,WeatherDisplay:10.37,2013-03-04 04:05:00,
2013-03-03 21:10:00,52.6,25.7,29.50,WNW,282,11.9,20.0,35,0.00,BKN,BKN,0.00,0.0,WeatherDisplay:10.37,2013-03-04 04:10:00,
2013-03-03 21:15:00,52.7,25.8,29.50,WNW,299,11.4,14.9,35,0.00,BKN,BKN,0.00,0.0,WeatherDisplay:10.37,2013-03-04 04:15:00,
2013-03-03 21:20:00,52.8,25.9,29.50,West,277,5.0,10.3,35,0.00,BKN,BKN,0.00,0.0,WeatherDisplay:10.37,2013-03-04 04:20:00,
2013-03-03 21:25:00,52.7,25.8,29.50,WNW,301,6.2,11.5,35,0.00,BKN,BKN,0.00,0.0,WeatherDisplay:10.37,2013-03-04 04:25:00,
2013-03-03 21:30:00,52.5,25.6,29.51,SW,230,4.0,10.3,35,0.00,BKN,BKN,0.00,0.0,WeatherDisplay:10.37,2013-03-04 04:30:00,
2013-03-03 21:35:00,52.3,26.1,29.51,WNW,296,5.5,11.5,36,0.00,BKN,BKN,0.00,0.0,WeatherDisplay:10.37,2013-03-04 04:35:00,
2013-03-03 21:40:00,52.0,25.8,29.51,West,261,3.3,6.9,36,0.00,BKN,BKN,0.00,0.0,WeatherDisplay:10.37,2013-03-04 04:40:00,
2013-03-03 21:45:00,51.6,26.1,29.50,WNW,283,2.7,4.0,37,0.00,BKN,BKN,0.00,0.0,WeatherDisplay:10.37,2013-03-04 04:45:00,
2013-03-03 21:50:00,51.3,25.9,29.51,SW,233,3.9,6.9,37,0.00,BKN,BKN,0.00,0.0,WeatherDisplay:10.37,2013-03-04 04:50:00,
2013-03-03 21:55:00,51.1,26.3,29.52,West,276,2.4,4.6,38,0.00,BKN,BKN,0.00,0.0,WeatherDisplay:10.37,2013-03-04 04:55:00,
2013-03-03 22:00:00,50.8,26.1,29.52,West,259,1.2,4.6,38,0.00,BKN,BKN,0.00,0.0,WeatherDisplay:10.37,2013-03-04 05:00:00,
2013-03-03 22:05:00,50.5,25.8,29.48,West,259,0.0,1.1,38,0.00,SCT,SCT,0.00,0.0,WeatherDisplay:10.37,2013-03-04 05:05:00,
2013-03-03 22:10:00,50.2,25.5,29.50,West,259,0.0,1.1,38,0.00,SCT,SCT,0.00,0.0,WeatherDisplay:10.37,2013-03-04 05:10:00,
2013-03-03 22:15:00,49.9,25.9,29.50,West,259,0.0,0.0,39,0.00,SCT,SCT,0.00,0.0,WeatherDisplay:10.37,2013-03-04 05:15:00,
2013-03-03 22:20:00,49.3,26.0,29.50,West,259,0.0,2.3,40,0.00,SCT,SCT,0.00,0.0,WeatherDisplay:10.37,2013-03-04 05:20:00,
2013-03-03 22:25:00,48.8,26.1,29.50,West,259,1.7,3.4,41,0.00,SCT,SCT,0.00,0.0,WeatherDisplay:10.37,2013-03-04 05:25:00,
2013-03-03 22:30:00,48.3,25.7,29.51,West,259,0.4,2.0,41,0.00,SCT,SCT,0.00,0.0,WeatherDisplay:10.37,2013-03-04 05:30:00,
2013-03-03 22:35:00,47.8,25.2,29.50,West,259,0.0,1.1,41,0.00,SCT,SCT,0.00,0.0,WeatherDisplay:10.37,2013-03-04 05:35:00,
2013-03-03 22:40:00,47.5,24.9,29.50,WNW,298,1.2,3.4,41,0.00,SCT,SCT,0.00,0.0,WeatherDisplay:10.37,2013-03-04 05:40:00,
2013-03-03 22:45:00,47.6,25.0,29.50,SW,221,0.4,2.3,41,0.00,SCT,SCT,0.00,0.0,WeatherDisplay:10.37,2013-03-04 05:45:00,
2013-03-03 22:50:00,47.8,25.2,29.50,SW,217,0.1,3.4,41,0.00,SCT,SCT,0.00,0.0,WeatherDisplay:10.37,2013-03-04 05:50:00,
2013-03-03 22:55:00,47.9,25.3,29.50,SW,217,2.1,3.4,41,0.00,SCT,SCT,0.00,0.0,WeatherDisplay:10.37,2013-03-04 05:55:00,
2013-03-03 23:00:00,48.2,25.6,29.50,WSW,257,1.5,3.4,41,0.00,SCT,SCT,0.00,0.0,WeatherDisplay:10.37,2013-03-04 06:00:00,
2013-03-03 23:05:00,48.3,25.1,29.49,WSW,257,0.0,0.0,40,0.00,SCT,SCT,0.00,0.0,WeatherDisplay:10.37,2013-03-04 06:05:00,
2013-03-03 23:10:00,48.4,25.8,29.49,WSW,257,0.0,0.0,41,0.00,SCT,SCT,0.00,0.0,WeatherDisplay:10.37,2013-03-04 06:10:00,
2013-03-03 23:15:00,48.3,25.1,29.49,SE,132,3.3,6.0,40,0.00,SCT,SCT,0.00,0.0,WeatherDisplay:10.37,2013-03-04 06:15:00,
2013-03-03 23:20:00,48.5,25.2,29.48,SSW,213,0.2,2.3,40,0.00,SCT,SCT,0.00,0.0,WeatherDisplay:10.37,2013-03-04 06:20:00,
2013-03-03 23:25:00,48.3,25.7,29.49,SSW,212,1.5,2.3,41,0.00,SCT,SCT,0.00,0.0,WeatherDisplay:10.37,2013-03-04 06:25:00,
2013-03-03 23:30:00,48.0,25.4,29.49,SSW,212,2.1,3.4,41,0.00,SCT,SCT,0.00,0.0,WeatherDisplay:10.37,2013-03-04 06:30:00,
2013-03-03 23:35:00,47.5,25.5,29.49,South,187,1.9,3.4,42,0.00,SCT,SCT,0.00,0.0,WeatherDisplay:10.37,2013-03-04 06:35:00,
2013-03-03 23:40:00,46.9,25.5,29.49,SE,136,3.6,5.0,43,0.00,SCT,SCT,0.00,0.0,WeatherDisplay:10.37,2013-03-04 06:40:00,
2013-03-03 23:45:00,46.3,25.6,29.50,SE,136,0.0,0.0,44,0.00,SCT,SCT,0.00,0.0,WeatherDisplay:10.37,2013-03-04 06:45:00,
2013-03-03 23:50:00,45.8,25.1,29.50,SE,136,0.6,2.0,44,0.00,SCT,SCT,0.00,0.0,WeatherDisplay:10.37,2013-03-04 06:50:00,
2013-03-03 23:55:00,45.4,25.3,29.50,SE,132,0.4,2.3,45,0.00,SCT,SCT,0.00,0.0,WeatherDisplay:10.37,2013-03-04 06:55:00,